Flight Track Log - Related Links

Times and Time Zones

All times are in EDT time to prevent confusion due to time zone crossing. See the DAL6241 flight status page for this flight to view local times or setup timezone preferences in your user account.

Time Position Orientation Groundspeed Altitude Reporting Facility
EDT Latitude Longitude Course Direction KTS MPH feet Rate Location/Type
03:33PM 40.7500 -73.8000 21° North 176 203 2,400  Level New York TRACON
03:34PM 40.8000 -73.7500 37° Northeast 217 250 5,100 2,550 Climbing New York TRACON
03:35PM 40.8500 -73.7000 37° Northeast 253 291 7,500 2,350 Climbing New York TRACON
03:36PM 40.9167 -73.6500 30° Northeast 288 331 9,800 1,595 Climbing New York TRACON
03:38PM 41.2726 -73.4637 21° North  Level FlightAware Approximate
03:38PM 41.0736 -73.5525 25° Northeast 339 390 12,100  Level Boston Center
03:39PM 41.1764 -73.4964 22° Northeast 375 432 14,000 1,785 Climbing Boston Center
03:40PM 41.2789 -73.4344 24° Northeast 398 458 15,700 1,657 Climbing Boston Center
03:41PM 41.3836 -73.3725 24° Northeast 398 458 17,700 1,444 Climbing Boston Center
03:42PM 41.4989 -73.2936 27° Northeast 403 464 18,900 1,271 Climbing Boston Center
03:43PM 41.5958 -73.1644 45° Northeast 414 476 20,200 1,220 Climbing Boston Center
03:44PM 41.7086 -73.1214 16° North 411 473 21,300 1,091 Climbing Boston Center
03:45PM 41.8314 -73.1422 353° North 416 479 22,400 1,082 Climbing Boston Center
03:46PM 41.9561 -73.1658 352° North 429 494 23,500 807 Climbing Boston Center
03:47PM 42.0792 -73.1869 353° North 434 499 24,000 252 Climbing Boston Center
03:48PM 42.2061 -73.2081 353° North 448 516 24,000 295 Level Boston Center
03:49PM 42.3192 -73.1281 28° Northeast 425 489 24,600 793 Climbing Boston Center
03:50PM 42.3992 -72.9911 52° Northeast 448 516 25,600 974 Climbing Boston Center
03:51PM 42.4683 -72.8792 50° Northeast 461 531 26,500 712 Climbing Boston Center
03:52PM 42.5689 -72.7050 52° Northeast 475 547 27,000 246 Climbing Boston Center
03:53PM 42.6714 -72.5447 49° Northeast 492 566 27,000  Level Boston Center
03:54PM 42.7608 -72.3919 51° Northeast 502 578 27,000 -101 Level Boston Center
03:55PM 42.8400 -72.2447 54° Northeast 502 578 26,800 -763 Descending Boston Center
03:56PM 42.9272 -72.0914 52° Northeast 497 572 25,500 -1,488 Descending Boston Center
03:57PM 43.0039 -71.9575 52° Northeast 497 572 23,800 -2,016 Descending Boston Center
03:58PM 43.0925 -71.8033 52° Northeast 491 565 21,400 -1,388 Descending Boston Center
03:59PM 43.1628 -71.6772 53° Northeast 473 544 21,000 -750 Descending Boston Center
04:00PM 43.2328 -71.5567 51° Northeast 432 497 19,900 -1,866 Descending Boston Center
04:01PM 43.3006 -71.4389 52° Northeast 392 451 17,300 -2,800 Descending Boston Center
04:02PM 43.3764 -71.3061 52° Northeast 392 451 14,300 -2,824 Descending Boston Center
04:03PM 43.4397 -71.1906 53° Northeast 386 444 11,700 -1,664 Descending Boston Center
04:04PM 43.4781 -71.0867 63° Northeast 362 417 11,000 -347 Descending Boston Center
04:05PM 43.5200 -70.9397 68° East 357 411 11,000 -153 Level Boston Center
04:06PM 43.5369 -70.8019 80° East 363 418 10,700 -756 Descending Boston Center
04:07PM 43.5311 -70.6931 94° East 331 381 9,500 -1,131 Descending Boston Center
04:08PM 43.5250 -70.5644 94° East 307 353 8,400 -1,230 Descending Boston Center
04:09PM 43.5211 -70.4617 93° East 302 348 7,000 -1,008 Descending Boston Center
04:10PM 43.5169 -70.3414 93° East 290 334 6,400 -1,271 Descending Boston Center
04:11PM 43.5361 -70.2492 74° East 285 328 4,500 -1,475 Descending Boston Center
04:12PM 43.5783 -70.1672 55° Northeast 248 285 3,400 -1,350 Descending Boston Center
04:13PM 43.6264 -70.1800 349° North 182 209 1,800 -1,220 Descending Boston Center
04:14PM 43.6422 -70.2367 291° West 137 158 1,000 -744 Descending Boston Center
04:15PM 43.6431 -70.2853 271° West 137 158 300 -689 Descending Boston Center

Login

Don't have an account? Register now (free) for customized features, flight alerts, and more!